This demonstration page uses our WeatherBlox Daily Observations layout. Learn more.

Left ArrowRight Arrow

30.21309, -93.2044

Hourly Observations for August 14, 2020

Temp ( °F °C ) Dew Point ( °F °C ) Humidity (%) Winds ( mph kmh ) Pressure ( in mb ) Visibility ( mi km ) Precip ( " mm )
12:15 am 00:15 Clear 78 25.8 76 24.5 93 93 Calm 29.96 1015 10 16 0.00 0.00
12:35 am 00:35 Clear 78 25.6 76 24.5 94 94 Calm 29.96 1015 10 16 0.00 0.00
12:55 am 00:55 Clear 78 25.7 76 24.6 94 94 Calm 29.95 1014 10 16 0.00 0.00
1:15 am 01:15 Clear 78 25.5 76 24.6 95 95 Calm 29.96 1015 10 16 0.00 0.00
1:35 am 01:35 Clear 78 25.5 76 24.7 95 95 SSE 3 6 29.95 1014 10 16 0.00 0.00
1:55 am 01:55 Clear 78 25.6 77 24.8 95 95 SW 3 6 29.96 1015 10 16 0.00 0.00
2:15 am 02:15 Clear 81 27.4 77 25.2 88 88 SSW 3 6 29.96 1015 10 16 0.00 0.00
2:35 am 02:35 Clear 82 27.7 78 25.3 87 87 SW 3 6 29.95 1014 10 16 0.00 0.00
2:55 am 02:55 Clear 82 27.7 77 25.2 86 86 WSW 6 9 29.95 1014 10 16 0.00 0.00
3:15 am 03:15 Clear 83 28.2 78 25.4 85 85 SW 6 9 29.94 1014 10 16 0.00 0.00
3:35 am 03:35 Clear 83 28.1 78 25.4 85 85 SW 5 7 29.94 1014 10 16 0.00 0.00
3:55 am 03:55 Clear 82 28 78 25.5 86 86 SW 3 6 29.94 1014 10 16 0.00 0.00
4:15 am 04:15 Clear 79 26.2 77 25 93 93 SSW 3 6 29.93 1014 10 16 0.00 0.00
4:35 am 04:35 Clear 79 25.9 76 24.6 93 93 SSW 3 6 29.93 1014 10 16 0.00 0.00
4:55 am 04:55 Partly Cloudy 81 27.2 78 25.5 90 90 SSW 5 7 29.92 1013 10 16 0.00 0.00
5:15 am 05:15 Mostly Cloudy 81 27.3 78 25.4 89 89 SW 3 6 29.92 1013 10 16 0.00 0.00
5:35 am 05:35 Partly Cloudy 81 27.3 78 25.4 89 89 SSW 3 6 29.93 1014 10 16 0.00 0.00
6:00 am 06:00 Partly Cloudy 81 27 79 26 94 94 Calm 29.93 1014 10 16 0.00 0.00
6:55 am 06:55 Mostly Sunny 81 27 79 26 94 94 Calm 29.93 1014 10 16 0.00 0.00
7:45 am 07:45 Mostly Sunny 82 28 79 26 89 89 Calm 29.95 1014 10 16 0.00 0.00
8:45 am 08:45 Partly Cloudy 86 30 79 26 79 79 Calm 29.96 1015 10 16 0.00 0.00
9:45 am 09:45 Partly Cloudy 88 31 79 26 75 75 WSW 12 19 29.96 1015 10 16 0.00 0.00
10:45 am 10:45 Partly Cloudy 90 32 79 26 71 71 WSW 10 17 29.97 1015 10 16 0.00 0.00
11:50 am 11:50 Mostly Cloudy 91 33 75 24 59 59 W 8 13 29.96 1015 10 16 0.00 0.00
12:50 pm 12:50 Mostly Cloudy 91 33 75 24 59 59 NW 12 19 29.96 1015 10 16 0.00 0.00
1:45 pm 13:45 Partly Cloudy 91 33 77 25 63 63 NW 8 13 29.94 1014 10 16 0.00 0.00
2:45 pm 14:45 Mostly Cloudy 93 34 77 25 59 59 WNW 9 15 29.92 1013 10 16 0.00 0.00
3:48 pm 15:48 Partly Cloudy 93 34 75 24 56 56 WNW 6 9 29.89 1012 10 16 0.00 0.00
4:53 pm 16:53 Partly Cloudy 93 34 79 26 63 63 SSW 13 20 29.87 1011 10 16 0.00 0.00
5:53 pm 17:53 Partly Cloudy 93 34 79 26 63 63 SSW 12 19 29.87 1011 10 16 0.00 0.00
6:53 pm 18:53 Mostly Sunny 90 32 79 26 71 71 SSW 13 20 29.87 1011 10 16 0.00 0.00
7:55 pm 19:55 Mostly Clear 88 31 77 25 70 70 SSW 9 15 29.89 1012 10 16 0.00 0.00
8:45 pm 20:45 Mostly Clear 86 30 75 24 70 70 SSW 8 13 29.90 1013 10 16 0.00 0.00
9:55 pm 21:55 Mostly Clear 84 29 77 25 79 79 SW 8 13 29.91 1013 10 16 0.00 0.00
10:15 pm 22:15 Clear 85 29.5 77 25.1 77 77 SW 8 13 29.92 1013 10 16 0.00 0.00
10:35 pm 22:35 Clear 85 29.4 77 25.2 78 78 SW 8 13 29.92 1013 10 16 0.00 0.00
10:55 pm 22:55 Clear 85 29.2 78 25.4 80 80 SW 8 13 29.92 1013 10 16 0.00 0.00
11:15 pm 23:15 Clear 84 29.1 78 25.4 80 80 SW 6 9 29.93 1014 10 16 0.00 0.00
11:35 pm 23:35 Clear 84 29 78 25.5 81 81 SW 6 9 29.93 1014 10 16 0.00 0.00
11:55 pm 23:55 Clear 84 29 78 25.6 82 82 SW 6 9 29.93 1014 10 16 0.00 0.00

Powered by AerisWeather